Vorticity
5 6 6 5 5 5 5 5 6 5 4 4 5 6 5 5 6 7 6 6 6 7 7 7 7 6 6 6 6 6 7 7 8 7 6 4 5 13 8 5 7 7 6
5 5 5 5 4 4 4 4 4 4 5 5 5 4 4 6 6 5 5 7 6 5 7 6 6 7 8 7 6 6 6 7 7 7 6 5 5 10 8 6 6 6 6
5 5 6 4 5 4 4 4 5 4 5 4 4 3 5 6 7 7 7 5 8 7 9 10 8 8 9 8 7 9 10 7 6 7 7 7 6 7 10 8 6 6 5
5 5 5 5 5 4 3 3 4 5 4 4 3 5 6 7 8 10 5 8 6 5 3 0 6 5 8 1 6 13 12 10 6 7 7 7 7 6 9 9 6 5 4
5 4 5 5 4 3 3 4 5 5 2 3 5 5 7 8 6 8 6 2 6 6 8 4 6 5 4 8 7 6 4 13 11 8 5 7 8 7 6 9 8 6 5
4 4 4 5 6 4 5 5 4 3 5 4 6 8 8 8 10 10 7 9 8 6 8 8 8 9 8 9 7 13 11 13 9 15 8 6 6 7 8 7 9 7 6
3 4 4 5 6 7 6 5 4 3 4 6 7 8 6 5 8 9 9 10 8 7 7 7 10 11 7 8 7 13 6 3 9 10 10 11 6 6 6 8 8 8 7
4 4 3 5 6 7 7 5 3 3 6 7 9 7 5 6 11 8 7 7 9 11 13 11 4 -1 10 23 12 24 11 10 7 7 7 11 12 7 8 7 5 9 11
4 4 5 6 7 9 4 1 3 5 7 9 7 7 9 9 6 8 9 10 6 11 12 10 7 6 4 10 7 12 2 2 7 7 7 5 5 14 12 5 7 14 9
5 5 7 9 11 4 1 4 5 8 11 8 7 12 9 9 11 11 12 11 15 8 5 8 8 6 5 7 14 14 6 3 1 4 13 4 9 -6 -1 11 15 5 13
6 6 11 9 5 4 4 6 8 10 7 7 10 7 8 11 16 8 11 6 6 7 8 6 9 12 12 14 18 9 10 -16 10 7 7 16 4 -20 20 6 30 6 16
11 12 7 3 3 7 4 8 11 9 9 9 8 8 12 15 8 6 4 4 10 6 11 9 12 -1 20 21 20 21 26 38 24 4 18 4 9 8 36 -5 13 28 -10
9 5 5 1 5 5 11 12 10 10 8 8 9 16 11 8 9 6 5 8 8 11 5 9 12 20 13 11 28 28 33 27 18 10 8 -15 14 9 9 23 22 8 33
2 4 0 5 7 13 12 11 10 8 11 13 11 14 11 10 6 5 9 9 11 7 10 5 14 12 8 41 29 33 21 25 23 17 13 -32 49 -9 -27 -19 -32 -25 15
4 1 5 11 16 12 10 10 8 10 11 9 9 1 5 6 8 7 9 10 9 11 8 13 6 11 37 18 27 24 29 15 28 12 34 19 24 20 31 47 3 19 27
4 11 15 13 13 10 9 9 12 11 15 8 2 11 6 11 6 9 11 3 5 7 10 11 3 13 41 -1 3 13 13 59 51 31 19 11 15 0 10 -7 19 19 -13
12 12 14 13 10 9 11 11 9 13 9 10 10 6 10 6 11 12 9 12 10 9 11 10 7 11 35 -0 5 5 42 15 19 -2 16 13 14 20 20 -0 -0 19 13
14 14 11 11 10 11 9 3 12 11 9 8 8 9 8 13 12 10 10 9 9 17 11 6 8 8 43 -1 3 -0 16 -22 5 42 30 -3 19 14 -4 10 -10 27 20
13 11 10 10 8 10 11 10 6 7 9 7 9 11 11 12 12 12 11 12 16 14 9 9 6 6 12 23 18 6 19 -2 -10 -4 -8 15 15 -6 11 15 17 8 11
10 7 7 9 10 9 10 11 12 11 11 11 11 11 14 17 13 13 16 17 13 13 8 5 5 6 6 12 14 17 17 11 19 17 16 14 16 13 11 11 14 20 22
7 8 9 13 15 13 12 10 9 9 12 12 14 15 14 16 18 19 14 12 7 5 7 8 10 9 5 3 4 3 5 5 2 3 2 3 4 3 5 6 7 6 6
13 13 16 9 9 9 12 14 15 14 16 15 12 15 14 13 7 9 8 7 3 6 7 7 10 7 7 6 6 6 6 5 6 7 7 6 8 7 8 7 7 6 5
13 8 9 12 9 10 10 11 12 13 15 15 15 13 10 6 8 7 8 7 8 8 8 8 7 6 6 7 7 7 8 9 9 10 10 7 9 10 11 12 11 10 9
8 9 8 7 9 9 11 11 11 12 13 13 12 10 7 9 10 9 7 8 7 8 8 7 7 7 7 8 8 9 8 8 8 10 12 10 11 5 4 6 9 12 12
8 10 9 11 10 8 9 9 10 12 11 11 10 9 9 11 8 6 6 7 7 8 7 7 8 8 9 8 9 10 7 6 9 13 6 6 12 5 3 6 16 19 13
9 9 9 8 7 9 10 10 10 11 11 10 9 10 10 8 5 2 6 9 9 9 8 8 7 8 9 9 10 9 8 6 5 11 12 8 7 11 9 11 15 9 2
Height
5869 5868 5868 5867 5865 5865 5864 5862 5861 5860 5858 5856 5854 5852 5850 5847 5845 5842 5840 5839 5836 5834 5833 5831 5829 5828 5826 5824 5822 5820 5819 5817 5815 5814 5813 5812 5812 5811 5811 5811 5812 5811 5811
5864 5864 5863 5862 5860 5859 5858 5857 5855 5855 5852 5850 5848 5846 5843 5842 5839 5836 5835 5832 5829 5826 5825 5823 5821 5819 5818 5817 5816 5814 5813 5811 5809 5808 5807 5806 5806 5805 5805 5805 5805 5806 5806
5860 5860 5859 5857 5855 5854 5853 5852 5850 5848 5845 5844 5841 5839 5837 5835 5832 5830 5828 5825 5821 5819 5817 5815 5814 5812 5810 5808 5807 5806 5805 5804 5803 5801 5800 5799 5799 5798 5798 5797 5798 5798 5799
5854 5854 5853 5851 5850 5849 5848 5845 5843 5841 5839 5837 5835 5832 5830 5827 5825 5822 5820 5816 5813 5811 5809 5807 5805 5803 5802 5800 5798 5796 5795 5794 5793 5793 5792 5791 5790 5790 5789 5790 5790 5791 5791
5848 5848 5847 5846 5844 5842 5841 5839 5837 5835 5833 5831 5828 5826 5823 5821 5818 5814 5811 5808 5806 5803 5800 5798 5796 5794 5792 5790 5789 5787 5786 5785 5784 5783 5782 5781 5781 5781 5781 5781 5782 5783 5784
5842 5842 5841 5839 5838 5836 5834 5833 5831 5829 5826 5824 5821 5819 5816 5813 5811 5807 5803 5800 5796 5794 5791 5788 5785 5783 5782 5780 5779 5777 5774 5773 5773 5772 5772 5772 5772 5772 5772 5772 5773 5774 5775
5835 5834 5834 5832 5831 5829 5827 5825 5823 5821 5818 5815 5813 5811 5807 5805 5802 5798 5794 5792 5788 5785 5782 5778 5776 5774 5771 5769 5767 5766 5765 5762 5762 5762 5761 5761 5761 5762 5762 5763 5764 5764 5766
5828 5827 5826 5824 5823 5821 5820 5818 5815 5812 5810 5806 5803 5801 5800 5798 5793 5789 5785 5782 5779 5775 5772 5768 5765 5763 5760 5757 5754 5752 5751 5751 5750 5750 5750 5749 5750 5751 5751 5751 5752 5753 5755
5821 5819 5818 5816 5814 5813 5812 5809 5806 5803 5801 5798 5794 5791 5789 5789 5785 5782 5777 5773 5770 5766 5762 5758 5754 5750 5746 5744 5741 5739 5737 5737 5736 5736 5738 5738 5737 5738 5739 5740 5740 5739 5741
5810 5810 5809 5808 5806 5804 5803 5800 5796 5794 5791 5789 5786 5782 5778 5775 5773 5773 5770 5765 5760 5757 5753 5748 5742 5736 5731 5728 5724 5724 5720 5721 5720 5719 5723 5723 5723 5723 5725 5726 5727 5729 5730
5802 5800 5799 5798 5797 5795 5793 5791 5787 5784 5781 5778 5775 5772 5768 5765 5763 5760 5760 5756 5751 5746 5741 5736 5730 5724 5717 5711 5706 5703 5702 5700 5703 5702 5703 5706 5707 5708 5707 5711 5713 5716 5718
5792 5792 5791 5790 5788 5786 5783 5780 5777 5774 5771 5767 5764 5761 5758 5756 5753 5750 5749 5745 5741 5737 5730 5723 5716 5710 5702 5693 5686 5680 5678 5681 5682 5681 5683 5689 5691 5694 5695 5697 5698 5697 5702
5783 5783 5782 5781 5778 5775 5773 5770 5767 5765 5761 5757 5754 5751 5748 5746 5743 5741 5738 5734 5730 5726 5720 5713 5703 5694 5686 5677 5668 5661 5661 5661 5664 5659 5664 5673 5674 5678 5679 5682 5684 5686 5686
5774 5774 5772 5770 5768 5765 5763 5760 5758 5754 5751 5747 5744 5742 5739 5735 5733 5729 5726 5722 5719 5715 5711 5702 5693 5682 5673 5661 5653 5650 5649 5648 5648 5647 5647 5653 5659 5663 5664 5670 5672 5675 5676
5764 5763 5761 5759 5757 5755 5753 5750 5747 5744 5741 5738 5735 5732 5729 5726 5722 5719 5715 5711 5707 5704 5701 5692 5683 5672 5660 5652 5646 5642 5638 5632 5630 5634 5637 5646 5649 5651 5656 5659 5658 5662 5665
5753 5752 5750 5748 5746 5744 5742 5739 5736 5734 5732 5729 5726 5723 5720 5716 5713 5709 5704 5700 5696 5693 5689 5683 5673 5663 5653 5646 5640 5635 5628 5617 5616 5622 5630 5635 5638 5640 5646 5646 5647 5649 5653
5744 5742 5740 5738 5737 5734 5732 5729 5727 5724 5722 5719 5717 5714 5710 5706 5702 5698 5694 5690 5686 5683 5679 5673 5665 5655 5646 5642 5636 5631 5623 5618 5617 5619 5622 5626 5629 5630 5635 5635 5638 5639 5640
5733 5732 5731 5729 5727 5724 5723 5720 5718 5715 5713 5710 5707 5704 5701 5697 5693 5689 5685 5681 5678 5674 5670 5664 5656 5649 5642 5637 5633 5629 5624 5618 5617 5615 5618 5621 5622 5625 5626 5625 5629 5631 5632
5724 5723 5722 5720 5718 5716 5714 5711 5709 5706 5703 5700 5697 5694 5691 5687 5683 5680 5676 5673 5670 5666 5662 5656 5650 5644 5638 5633 5629 5626 5623 5620 5617 5615 5615 5616 5615 5616 5616 5617 5617 5618 5621
5715 5714 5713 5711 5709 5708 5705 5702 5700 5697 5694 5690 5688 5684 5681 5677 5674 5671 5668 5665 5662 5658 5654 5650 5645 5640 5636 5630 5626 5623 5619 5616 5614 5613 5612 5611 5610 5610 5609 5609 5608 5608 5610
5705 5705 5704 5702 5700 5700 5696 5694 5691 5688 5685 5682 5678 5675 5672 5668 5666 5663 5660 5658 5654 5651 5647 5643 5639 5635 5631 5626 5622 5619 5616 5613 5610 5609 5607 5606 5604 5603 5602 5602 5602 5601 5601
5697 5696 5696 5694 5694 5691 5688 5686 5683 5680 5676 5672 5669 5666 5664 5662 5659 5656 5654 5651 5648 5644 5640 5636 5632 5628 5624 5621 5617 5613 5610 5607 5604 5602 5600 5597 5597 5594 5593 5591 5589 5587 5587
5687 5688 5687 5686 5685 5682 5680 5678 5675 5672 5668 5665 5662 5660 5658 5655 5653 5650 5647 5644 5641 5637 5633 5629 5625 5621 5617 5613 5609 5605 5601 5598 5595 5592 5590 5586 5586 5583 5580 5578 5575 5573 5570
5681 5680 5679 5678 5676 5674 5672 5670 5667 5664 5661 5659 5656 5654 5651 5649 5646 5644 5641 5637 5634 5630 5626 5621 5616 5613 5609 5604 5600 5596 5592 5588 5585 5582 5579 5575 5572 5569 5566 5563 5560 5557 5555
5674 5673 5672 5670 5669 5667 5665 5663 5660 5657 5655 5653 5650 5647 5644 5642 5640 5637 5634 5630 5625 5621 5616 5612 5608 5604 5600 5596 5591 5587 5583 5579 5575 5571 5567 5563 5559 5555 5552 5548 5543 5539 5536
5667 5666 5665 5664 5662 5661 5660 5657 5654 5651 5648 5646 5643 5640 5638 5635 5633 5629 5625 5621 5616 5612 5607 5603 5599 5594 5590 5585 5581 5576 5572 5568 5563 5559 5556 5550 5544 5541 5536 5530 5525 5521 5517